Location: Shannon
(40.5500°S, 175.4167°E)
Time: 20:56:54
(UTC+00:00)

H-2A R/B - Pass Details

Date: 17 November 2025
Orbit: 484 x 560 km, 98.2° (Epoch: 14 December)

Event Time Altitude Azimuth Distance (km) Brightness Sun altitude
Rises 14:24:26 0° 153° (SSE) 2,616 7.2 -21.9°
Reaches altitude 10° 14:26:52 10° 137° (SE) 1,732 6.0 -21.6°
Maximum altitude 14:29:51 23° 84° (E) 1,139 4.2 -21.3°
Enters shadow 14:31:40 16° 45° (NE) 1,392 4.3 -21.1°
